GFSMA_prec_cloud_162.txt.gz
Cloud_Cover
5 1 5 5 5 5 5 2 0 0 0 0 0 0 5 5 5 5 3 5 5 7 100 100 100 100 97 84 100 100 100 100 97 100 100 100 100 100 100 100 100 100 90
24 5 4 4 5 5 5 5 2 0 0 0 0 0 0 0 0 0 2 0 14 77 58 65 67 96 100 94 96 100 100 100 100 92 100 100 100 100 100 100 100 100 100
34 5 6 5 5 5 4 1 2 0 0 0 0 0 0 0 0 0 0 0 42 80 78 98 99 100 89 67 68 90 100 100 100 100 100 100 100 100 100 100 100 100 100
7 9 10 25 78 10 10 5 5 5 5 0 0 0 2 7 1 0 0 0 0 0 3 38 96 100 100 100 100 100 100 100 100 100 100 100 100 100 100 100 100 100 100
47 82 94 50 51 5 3 3 2 5 72 8 0 0 2 28 95 7 0 0 0 1 2 0 5 81 99 100 100 100 100 100 100 100 100 100 100 100 100 100 100 100 100
11 84 72 7 5 47 81 90 33 5 23 5 0 0 0 0 0 1 7 17 3 0 0 0 0 1 60 100 99 100 100 100 100 100 100 100 100 100 100 100 100 100 100
84 69 19 46 36 4 5 4 3 0 2 3 0 5 1 3 5 4 83 6 3 0 0 4 1 88 64 70 100 100 100 95 100 100 100 100 100 100 100 100 100 100 100
50 94 89 28 7 23 5 6 5 5 12 5 5 24 100 53 10 5 4 5 34 2 0 0 0 0 4 36 36 70 34 0 0 48 100 100 100 100 100 100 100 100 100
80 94 92 100 100 64 14 71 34 7 39 10 63 13 57 93 74 14 5 6 3 2 1 0 3 2 68 90 52 3 1 0 0 0 20 100 100 100 100 100 100 100 100
91 77 100 100 83 23 83 63 40 7 7 39 69 70 16 54 92 96 44 5 75 5 32 51 5 19 54 14 49 0 0 0 0 0 31 94 100 100 100 100 100 100 100
100 100 100 98 77 96 75 82 8 39 53 89 98 100 100 100 100 95 100 100 100 79 60 8 7 11 23 6 78 5 1 4 5 39 100 100 100 100 100 100 100 100 100
60 56 61 65 82 100 89 89 100 84 100 100 100 100 100 100 100 100 100 66 72 60 6 7 5 5 3 5 4 0 5 5 5 17 100 100 100 100 100 100 100 100 100
97 98 100 100 100 100 100 98 100 100 100 100 100 100 100 100 100 100 93 58 1 0 5 24 14 5 0 2 0 0 38 5 18 61 100 100 100 100 100 100 100 100 100
82 100 100 100 100 100 100 100 100 98 100 100 100 100 100 100 100 21 6 1 0 8 79 5 6 95 96 5 72 11 99 63 71 98 100 100 100 100 100 100 100 100 100
100 100 100 100 100 100 100 100 100 100 100 100 100 100 96 81 5 5 4 3 5 5 1 5 27 100 100 99 100 100 100 92 100 97 100 100 100 100 100 100 100 100 100
100 100 100 100 100 100 100 100 100 100 100 100 100 100 19 5 0 1 0 0 4 5 5 0 4 14 77 91 60 21 100 100 100 100 100 100 100 100 100 100 100 100 100
100 100 100 100 100 100 100 100 100 100 100 100 76 49 4 4 0 5 0 5 2 5 4 0 0 41 62 49 98 87 100 100 100 100 100 100 100 100 100 100 100 100 100
100 100 100 100 100 100 100 100 100 100 13 5 5 12 4 3 5 2 0 5 5 5 5 4 0 0 6 80 5 79 100 100 100 100 100 100 100 100 100 100 100 100 100
100 100 100 100 100 100 100 100 42 8 5 5 28 5 5 5 5 3 5 5 0 5 5 5 5 3 1 20 99 58 100 100 100 100 100 99 74 100 100 100 100 100 100
100 100 86 100 100 100 76 45 78 60 100 100 56 5 5 5 5 5 5 4 3 0 5 5 29 82 47 40 2 64 100 100 100 100 100 100 91 68 100 100 100 100 100
100 100 100 100 97 98 93 99 100 94 100 71 5 5 6 62 31 5 5 5 5 5 5 5 90 96 100 95 6 5 74 100 98 99 100 100 99 44 5 60 96 100 100
100 100 99 100 100 100 100 100 100 100 100 92 5 97 98 5 100 25 5 95 37 5 44 10 48 20 100 100 27 5 87 99 84 42 100 80 100 89 5 6 99 100 100
100 100 100 100 100 100 100 100 100 46 7 5 5 51 99 45 5 82 95 95 95 20 95 10 15 26 29 46 71 26 99 100 100 96 92 91 100 100 100 20 95 99 100
100 100 100 100 100 100 100 100 40 5 5 79 5 98 85 5 9 11 5 98 26 5 5 5 5 66 94 85 59 85 100 100 100 100 100 100 100 100 100 96 47 100 100
100 100 100 100 100 100 90 56 7 26 5 37 8 5 10 5 62 100 69 10 14 87 78 95 92 100 100 93 54 85 100 100 100 100 100 100 100 100 100 100 100 94 85
100 100 100 100 100 100 99 76 76 98 9 40 98 72 78 30 86 78 18 87 62 83 100 100 100 100 100 36 47 100 100 100 100 100 100 100 100 100 100 100 100 100 92

GFSMA_prec_cloud_165.txt.gz
Cloud_Cover
6 60 5 5 5 5 4 3 1 5 5 5 4 1 0 0 2 0 0 15 27 34 16 59 43 26 64 9 4 36 100 100 100 100 100 100 100 100 100 100 100 100 100
64 8 6 5 6 10 60 33 17 5 3 5 0 4 2 4 1 3 0 52 74 99 100 100 98 91 73 100 99 100 100 100 100 100 100 100 100 100 100 100 100 100 100
26 26 35 6 76 19 48 69 35 89 17 2 0 0 0 0 0 4 11 3 0 7 32 99 100 100 100 100 34 99 100 98 100 100 100 100 100 100 100 100 100 100 100
100 100 100 100 35 12 6 7 10 64 61 30 5 1 1 0 0 0 0 0 0 0 0 12 51 100 100 100 100 100 100 100 100 100 100 100 100 100 100 100 100 100 100
100 100 100 100 100 100 98 100 99 100 80 6 3 12 3 5 0 0 0 0 1 3 0 0 0 11 48 100 100 100 100 100 100 100 100 100 100 100 100 100 100 100 100
100 100 100 100 100 100 100 43 85 82 66 48 92 60 2 0 5 23 40 51 5 16 2 53 85 14 0 80 87 91 98 100 100 100 100 100 100 100 100 100 100 100 100
100 100 100 100 100 100 100 88 28 100 100 100 100 100 100 11 5 5 5 2 5 2 5 5 5 3 5 20 8 50 33 100 100 100 100 100 100 100 100 100 100 100 96
100 100 99 100 100 98 10 92 100 100 95 98 92 100 63 20 16 26 5 5 20 10 5 3 90 31 13 1 0 0 0 0 32 70 74 100 100 100 100 100 100 100 100
100 100 100 100 100 100 97 98 100 100 64 5 5 5 8 5 12 50 27 5 4 5 29 32 0 25 6 1 3 0 0 0 0 16 93 100 100 100 100 100 100 100 100
100 100 100 79 20 53 96 73 27 16 5 5 12 99 56 69 5 22 12 8 13 10 65 50 13 5 6 29 57 4 2 5 4 74 100 100 100 100 100 100 100 100 100
100 98 61 85 82 98 100 90 6 8 20 18 39 24 100 78 98 99 98 99 89 100 100 100 100 100 100 100 97 96 100 98 95 86 100 100 100 100 100 100 100 100 100
100 97 100 100 100 100 100 100 100 68 100 99 68 67 57 93 76 95 100 100 93 96 99 100 94 44 4 0 0 1 17 13 8 65 100 100 100 100 100 100 100 100 100
100 100 100 100 100 100 100 100 100 100 100 100 100 100 100 100 91 100 90 72 100 100 65 23 5 5 2 0 0 0 49 5 48 37 100 100 100 100 100 100 100 100 100
100 100 100 100 100 100 100 100 100 86 99 100 90 100 100 100 100 100 100 100 99 45 5 5 5 5 0 0 0 0 5 7 100 100 100 100 100 100 100 100 100 100 100
100 100 100 100 100 100 100 100 100 100 100 100 100 100 99 100 100 100 100 100 59 12 1 0 0 2 0 0 0 0 6 7 100 100 91 100 100 100 100 100 100 100 100
100 100 100 100 100 100 100 100 100 100 100 100 100 100 100 100 100 100 59 4 2 2 1 0 0 0 0 0 0 0 5 86 100 100 100 100 100 100 100 100 100 100 100
100 100 100 100 100 100 100 100 100 100 100 100 100 100 95 74 12 4 2 0 4 0 0 0 0 0 0 0 0 1 14 49 100 100 100 100 100 100 100 100 100 100 100
100 100 100 100 100 100 100 100 100 99 98 95 32 48 5 5 1 5 1 0 0 0 0 0 0 0 4 5 0 4 9 61 94 100 100 100 100 100 100 100 100 100 100
100 100 100 100 100 100 100 100 100 100 58 100 100 25 15 32 5 3 2 2 0 1 0 0 0 2 5 5 5 5 12 60 88 100 100 100 100 100 100 100 100 100 100
100 100 100 100 100 100 100 100 100 100 100 75 18 89 5 24 5 5 5 5 3 5 2 0 0 1 5 4 8 49 72 45 99 98 100 100 38 62 100 95 100 100 100
100 100 100 100 100 100 100 100 100 100 40 100 98 90 67 37 42 5 5 5 5 5 5 5 5 5 5 5 15 95 97 92 100 100 100 98 98 54 20 36 95 100 100
100 100 100 100 100 100 91 94 100 100 100 81 88 100 22 21 88 83 85 76 24 48 8 5 5 5 5 5 5 5 96 100 100 10 100 99 100 56 54 100 95 100 100
100 100 100 100 100 100 100 100 100 100 100 100 100 98 20 5 5 40 100 86 5 79 5 7 5 56 95 45 13 6 12 99 100 81 98 100 100 86 99 100 99 100 100
100 100 100 100 100 100 100 100 100 100 100 100 100 6 5 5 5 5 60 22 27 5 5 5 54 90 100 94 50 8 90 88 100 97 98 100 100 100 100 99 89 100 100
100 100 100 100 100 100 100 100 100 100 100 100 57 5 5 5 90 85 7 5 5 32 29 62 97 99 100 94 79 6 98 100 100 100 100 100 100 100 100 100 100 100 100
100 100 100 100 100 100 100 100 100 100 99 15 13 5 27 46 82 59 24 20 76 60 87 93 70 97 95 100 100 95 46 82 100 100 100 100 100 100 100 100 100 100 100

GFSMA_prec_cloud_168.txt.gz
Cloud_Cover
95 21 5 5 5 8 8 21 11 5 24 9 5 18 5 4 5 6 100 100 99 100 100 100 100 100 77 46 50 65 28 78 37 5 42 100 100 100 100 100 100 100 100
78 100 100 62 67 36 5 7 37 28 30 33 63 25 4 2 3 6 90 99 98 51 59 94 88 79 86 100 96 100 100 100 100 100 99 98 100 100 100 100 100 100 100
100 87 77 18 6 5 27 30 100 100 100 99 95 99 13 10 4 28 19 39 97 95 44 32 41 100 100 100 100 100 96 100 100 100 100 100 100 100 100 100 100 100 100
100 100 100 100 78 100 100 100 100 100 100 100 85 21 9 3 10 26 7 81 100 100 97 2 14 95 100 100 100 100 100 95 100 100 100 100 100 100 100 100 100 100 100
100 100 100 100 100 100 100 100 100 100 100 64 89 14 5 4 3 13 17 94 45 44 64 6 5 8 72 94 90 74 62 81 95 99 100 100 100 100 100 100 100 100 100
100 100 100 100 100 100 100 100 100 100 100 59 85 11 6 5 83 96 63 5 5 5 5 5 8 22 48 6 2 1 16 17 38 49 86 100 100 98 100 100 100 100 100
100 100 100 100 100 100 100 100 100 100 100 97 63 33 5 98 99 5 44 10 5 5 14 93 54 96 7 5 8 0 0 2 8 37 66 46 91 100 100 100 100 100 100
100 100 100 100 100 100 100 100 100 100 96 27 10 5 5 23 71 81 87 30 5 9 10 5 6 68 44 5 5 5 36 2 2 10 83 100 100 100 99 100 100 100 100
92 100 83 100 97 99 100 100 100 52 76 77 74 100 100 100 100 100 59 6 4 17 5 43 64 5 6 5 0 2 15 4 7 79 100 100 100 100 100 100 100 100 100
34 64 98 100 100 100 100 100 93 90 92 63 74 100 100 100 24 95 51 5 5 5 5 5 7 4 5 5 25 4 4 4 17 80 100 100 100 100 100 100 100 100 100
100 100 100 100 100 100 100 100 100 99 99 100 100 100 100 100 75 7 32 63 34 21 5 54 8 96 12 28 95 92 8 100 100 100 100 100 100 100 100 100 100 100 100
91 100 99 67 99 100 99 100 100 100 100 100 99 100 100 100 92 96 100 99 43 52 26 76 100 100 100 100 100 100 71 2 100 100 100 100 100 100 100 100 100 100 100
100 100 100 100 100 100 100 100 100 100 100 100 100 100 97 100 100 91 100 100 100 100 100 100 100 100 100 97 57 35 4 5 100 100 100 100 100 100 100 100 100 100 100
100 100 100 100 100 100 100 100 100 100 100 100 100 100 74 98 78 100 100 100 100 100 100 100 100 96 33 7 0 0 3 47 76 100 100 100 100 100 100 100 100 100 100
100 100 100 100 100 100 100 100 93 100 100 100 100 100 100 100 100 100 100 100 100 100 100 100 6 2 0 0 0 0 4 78 16 10 49 100 100 100 100 100 100 100 100
100 100 100 100 100 100 100 100 100 100 100 100 100 100 100 100 100 100 100 70 90 52 26 4 0 0 0 0 0 2 5 6 85 74 60 100 100 100 100 100 100 100 100
100 100 100 100 100 100 100 100 100 100 100 100 100 100 100 100 100 100 87 18 6 6 0 0 0 0 0 0 0 7 95 5 49 97 100 100 100 100 100 100 100 100 100
100 100 100 100 100 100 100 100 100 100 100 100 100 100 100 100 100 100 100 59 0 0 4 0 2 0 0 0 0 5 16 38 46 100 100 100 87 68 100 100 100 100 100
100 100 100 100 100 100 100 100 100 100 100 100 100 100 100 100 100 100 80 4 4 34 3 1 5 0 0 0 0 5 5 5 8 100 100 100 42 78 75 100 100 100 100
100 100 100 100 100 100 100 97 100 100 100 100 100 100 100 100 81 98 88 85 56 5 4 0 1 4 0 0 2 5 5 5 6 100 99 97 20 25 95 100 100 100 100
100 100 100 100 100 100 100 100 100 100 100 100 100 100 100 97 95 100 71 95 5 5 5 4 5 5 5 5 7 5 14 5 30 85 100 100 85 6 6 56 100 100 100
100 100 100 100 100 100 100 100 100 100 100 100 100 96 100 100 100 100 100 81 5 25 5 5 5 5 5 5 5 5 5 100 100 39 100 100 96 39 69 8 100 100 100
100 100 100 100 100 100 100 100 100 100 100 100 100 100 100 100 100 96 98 26 26 5 2 5 5 30 58 16 5 5 58 76 91 44 100 100 100 81 35 21 100 100 100
100 100 100 100 100 100 100 100 100 100 100 100 100 100 100 100 100 100 97 34 38 27 5 9 22 88 85 79 26 48 97 75 72 64 100 100 100 78 94 100 100 100 100
100 100 100 100 100 100 100 100 100 100 100 100 100 100 100 100 100 96 8 9 12 5 31 50 94 81 59 43 5 10 98 98 78 13 78 100 100 97 100 100 83 100 100
100 100 100 100 100 100 100 100 100 100 100 100 100 100 100 100 97 57 11 5 78 48 57 5 11 45 37 60 46 100 68 100 94 17 77 100 100 100 100 100 100 100 100

GFSMA_prec_cloud_174.txt.gz
Cloud_Cover
99 100 100 100 100 100 100 100 100 100 100 84 99 73 16 38 100 69 100 88 83 52 64 89 99 93 100 100 100 100 100 100 100 100 100 100 100 100 100 100 100 100 100
95 99 50 100 100 100 100 100 100 100 100 100 100 100 100 94 98 100 100 100 100 100 65 99 100 90 84 59 71 99 100 100 100 100 100 100 100 100 100 100 100 100 100
4 100 100 100 100 100 100 100 100 100 100 100 100 100 100 100 100 100 100 100 100 100 100 100 100 100 100 98 100 100 99 100 100 100 100 100 100 100 100 100 100 100 100
2 0 5 15 58 42 100 100 100 100 100 100 100 100 100 100 100 100 100 100 98 100 100 100 99 58 57 99 100 100 100 100 100 100 80 72 88 100 100 99 100 100 100
8 5 5 6 5 38 94 79 100 76 7 34 64 100 100 100 100 100 100 100 100 95 100 100 100 100 60 31 40 62 100 100 100 73 56 77 90 100 80 62 100 100 100
100 24 62 6 10 28 36 86 100 100 100 100 100 100 100 100 100 100 100 100 100 100 100 100 99 100 100 92 100 100 100 100 100 98 87 72 100 100 100 100 98 83 84
100 16 57 100 95 100 91 81 100 100 100 100 100 100 100 100 100 100 99 100 100 100 100 100 92 62 84 100 100 100 100 100 100 100 100 100 100 100 100 100 100 100 97
100 100 34 71 74 99 100 95 84 98 100 98 100 100 100 100 100 88 99 100 99 100 94 67 54 22 80 53 15 8 8 86 80 73 100 100 100 100 100 100 92 100 100
100 100 100 100 96 100 100 99 84 98 66 81 97 80 100 87 90 84 94 100 100 100 96 78 86 79 43 5 5 40 46 100 100 100 100 100 100 100 100 100 100 100 100
100 100 100 99 100 100 100 100 99 93 99 81 56 93 94 100 100 99 98 100 100 100 100 100 98 91 47 39 5 15 72 72 60 97 99 90 88 100 100 100 100 100 100
100 100 100 100 100 100 100 100 100 100 97 92 85 99 100 95 87 92 96 99 100 100 99 41 89 85 92 96 100 100 100 95 88 27 100 100 100 100 100 100 100 100 100
100 100 100 100 100 100 100 100 100 100 100 99 80 93 85 84 89 100 93 78 80 78 49 89 96 100 43 99 100 99 99 82 91 83 43 100 100 100 100 100 100 100 100
100 100 100 100 100 100 100 100 100 100 98 100 100 100 99 99 73 56 36 36 20 79 86 98 100 100 100 100 100 100 100 100 100 100 100 100 100 100 100 100 100 100 100
100 100 100 100 100 100 100 100 100 100 100 100 93 100 100 100 99 100 100 97 57 100 100 100 100 100 99 100 100 100 100 100 100 100 100 100 100 100 100 100 100 100 100
100 100 100 100 100 100 100 100 100 100 100 100 100 100 100 100 100 100 99 100 100 100 100 100 100 100 100 100 86 95 86 100 100 100 100 100 100 100 100 100 100 100 100
100 100 100 100 100 100 100 100 100 100 100 100 100 100 100 100 100 100 100 100 100 100 100 100 100 100 100 100 100 100 100 100 100 100 100 100 100 100 100 100 100 100 100
100 100 100 100 100 100 100 100 100 100 100 100 100 100 100 100 100 100 100 100 100 100 100 100 100 100 100 100 100 100 100 98 71 100 100 100 100 100 100 100 100 100 100
100 100 100 100 100 100 100 100 100 100 100 100 100 100 100 100 100 100 100 100 100 100 100 100 100 89 85 100 100 30 13 6 93 100 100 100 100 100 100 100 100 100 100
100 100 100 100 100 100 100 100 100 100 100 100 100 100 100 100 100 100 100 100 100 100 100 79 100 81 52 92 82 5 5 5 100 100 100 100 100 100 100 88 97 100 100
100 100 100 100 100 100 100 100 100 100 100 100 100 100 100 100 100 100 100 100 100 100 100 100 100 76 100 40 47 5 5 5 96 100 88 100 80 65 98 96 99 100 100
100 100 100 100 100 100 100 100 100 100 100 100 100 100 100 100 100 100 100 100 100 100 99 89 88 17 8 27 83 13 5 5 93 99 100 82 84 63 5 29 95 100 99
100 100 100 100 100 100 100 100 100 91 100 100 100 100 100 100 100 100 87 85 100 100 81 100 100 100 100 98 5 5 17 95 99 95 99 95 95 58 72 99 100 100 100
100 100 100 100 100 99 100 100 100 100 100 100 100 100 100 100 100 100 100 100 100 100 100 100 100 77 11 5 5 8 96 66 99 94 100 99 91 60 100 97 100 100 100
100 100 100 100 100 100 100 100 100 100 100 100 100 100 100 100 100 100 100 100 100 100 100 80 44 42 35 5 5 24 25 14 89 100 100 100 87 100 82 55 100 100 100
100 100 100 100 100 100 100 99 100 100 100 100 100 100 100 100 100 100 100 100 100 60 83 92 89 82 29 11 5 41 86 74 58 64 100 99 66 82 64 100 100 100 100
100 100 100 100 100 93 100 98 100 100 100 100 100 100 100 100 100 100 100 100 100 100 99 63 13 6 11 6 5 69 100 100 85 32 60 56 64 90 100 100 100 100 100

GFSMA_prec_cloud_177.txt.gz
Cloud_Cover
1 2 5 85 100 100 100 100 100 100 100 100 100 100 100 100 100 100 97 27 55 96 100 100 100 100 89 99 100 100 100 100 100 100 100 100 100 100 100 100 100 100 84
0 0 0 0 0 15 42 60 100 90 100 100 100 100 100 100 100 100 100 98 92 95 82 100 100 100 100 100 96 100 100 100 99 100 88 66 67 34 57 92 80 22 100
88 94 51 5 0 5 5 5 6 6 39 67 100 100 100 100 100 100 100 100 100 100 100 100 100 100 100 100 100 100 100 98 100 100 100 100 100 95 53 100 100 68 6
100 100 100 99 37 6 4 5 5 5 5 27 96 88 98 71 100 98 77 100 100 100 100 93 100 100 100 100 100 100 100 100 100 97 98 100 100 100 100 100 100 88 0
100 100 100 100 100 17 5 5 7 5 85 32 99 100 100 100 100 100 96 100 100 100 100 100 100 94 100 100 77 44 23 7 22 5 18 75 100 100 100 100 100 82 41
100 100 100 100 100 100 99 9 80 29 14 6 54 85 100 100 86 100 97 80 99 100 98 100 100 100 100 100 100 100 100 90 25 16 100 100 100 100 100 100 100 94 50
100 100 100 100 100 100 100 100 62 95 68 99 100 83 98 45 65 96 100 100 100 100 100 100 100 100 100 98 100 83 74 61 26 90 100 100 100 100 100 100 69 100 100
100 100 100 100 100 99 99 100 100 99 50 96 100 100 94 89 99 99 95 95 83 97 88 100 100 100 100 100 100 58 69 96 56 30 90 100 100 100 100 100 100 100 100
100 100 100 100 100 100 100 99 92 100 100 100 100 100 100 100 87 98 86 57 92 96 65 100 100 98 72 43 67 66 64 5 12 5 41 96 73 97 100 100 100 100 100
100 100 100 100 100 100 100 100 100 100 100 100 86 100 100 100 84 100 100 98 100 97 100 100 100 99 99 20 75 15 19 66 83 5 60 94 100 96 98 100 100 100 100
100 100 100 100 100 100 100 100 100 100 97 100 100 100 100 100 100 99 100 100 100 100 100 100 100 98 98 88 31 12 8 5 5 7 100 100 100 100 100 100 100 100 100
100 100 100 100 100 100 100 100 100 100 100 98 98 100 100 100 100 100 100 72 95 94 100 41 35 70 74 26 54 99 47 100 21 25 97 100 100 100 100 100 100 100 100
100 100 100 100 100 100 100 100 100 100 100 100 100 100 100 100 100 96 100 100 100 100 100 100 98 61 89 86 100 49 100 100 100 100 99 100 100 100 100 100 100 100 100
100 100 100 100 100 100 100 100 100 100 100 100 100 100 100 100 100 100 99 100 100 100 100 100 100 23 100 100 72 100 100 100 100 100 100 100 100 100 100 100 100 100 100
100 100 100 100 100 100 100 100 100 100 100 100 100 100 100 100 100 100 100 100 100 100 100 100 100 78 100 75 100 100 100 100 100 100 100 100 100 100 100 100 100 100 100
100 100 100 100 100 100 100 100 100 100 100 100 100 100 100 100 100 100 100 100 100 100 100 100 100 100 100 100 100 100 100 100 100 100 100 100 100 100 100 100 100 100 99
100 100 100 100 100 100 100 100 100 100 100 100 100 100 100 100 100 100 100 100 100 100 100 100 100 100 100 100 100 100 100 100 100 100 100 52 100 100 68 84 91 88 100
100 100 100 100 100 100 100 100 100 100 100 100 100 100 100 100 100 100 100 100 100 100 100 100 100 100 100 97 100 100 100 96 100 100 100 8 100 100 15 27 85 100 87
100 100 100 100 100 100 100 100 100 100 100 100 100 100 100 100 100 100 100 100 100 100 100 100 100 100 96 81 35 30 32 100 100 100 78 38 99 100 91 73 88 92 87
100 100 100 100 100 100 100 100 100 100 100 100 100 100 100 100 100 100 100 100 100 100 100 100 100 53 45 68 100 87 71 94 100 100 96 29 20 64 94 96 96 94 94
5 11 77 81 100 100 100 100 100 100 100 100 100 100 100 100 100 100 100 100 100 100 100 100 100 100 89 79 77 18 96 100 100 100 100 100 94 99 87 96 100 100 100
23 61 100 100 100 100 100 100 76 79 99 90 65 73 100 100 100 100 100 100 100 100 100 100 95 84 100 99 100 89 100 100 99 100 100 91 96 100 99 98 100 99 98
99 78 90 100 100 100 100 100 63 61 68 67 56 82 85 100 100 100 100 100 100 100 100 100 100 100 100 99 63 93 26 81 94 100 100 100 96 95 95 100 100 100 100
100 100 100 100 100 100 100 100 85 88 99 100 98 100 100 100 100 100 100 100 100 100 100 100 100 79 83 68 50 56 96 100 100 100 97 100 97 99 97 100 100 100 100
100 100 100 100 100 100 100 100 99 99 96 100 100 100 100 100 100 100 100 100 100 100 100 100 100 100 44 87 11 83 98 100 100 100 95 100 99 100 98 100 100 100 100
100 100 100 100 100 100 100 100 89 100 89 98 100 100 100 100 100 100 100 100 100 100 100 100 96 5 40 74 8 87 98 98 100 100 90 100 100 100 100 100 100 100 100

GFSMA_prec_cloud_180.txt.gz
Cloud_Cover
64 36 28 2 0 0 0 2 34 59 19 84 98 88 95 95 25 13 81 29 44 81 100 99 100 100 100 100 100 100 100 100 100 99 98 79 96 100 100 100 100 22 22
100 100 93 52 76 96 86 3 5 48 69 100 93 87 55 79 37 23 54 89 100 99 100 100 100 100 100 100 100 100 100 100 100 100 100 100 72 91 81 69 100 91 37
49 98 100 96 53 100 100 100 97 32 100 71 98 100 94 56 8 14 71 100 100 100 88 100 70 100 100 100 82 46 100 62 100 100 100 100 100 100 100 100 99 99 37
96 100 100 92 100 100 100 100 100 76 6 44 94 100 85 96 42 89 99 100 100 100 100 100 100 100 100 100 88 16 63 96 89 53 100 100 93 63 98 100 99 100 100
99 100 92 97 100 57 100 100 100 100 100 100 100 99 84 5 8 48 72 71 99 100 100 73 41 44 60 81 100 100 99 100 100 100 100 100 100 100 100 91 53 98 100
100 100 100 100 100 100 95 100 100 100 100 100 100 100 64 17 10 27 94 58 44 60 97 99 100 100 100 100 100 37 96 100 100 100 100 100 100 100 100 100 100 99 89
100 100 100 100 100 100 100 100 100 100 100 100 100 100 100 100 100 77 78 100 24 93 100 100 11 28 52 62 50 91 97 100 100 100 100 100 100 92 79 96 100 100 88
100 100 100 100 100 100 100 100 100 100 100 100 100 97 100 100 100 100 100 100 100 100 100 100 100 91 37 25 97 25 13 72 99 31 26 22 100 81 100 100 100 100 61
100 100 100 100 100 100 100 100 100 100 100 100 100 100 100 87 99 100 100 100 81 69 82 95 100 99 100 99 100 100 100 100 100 100 100 100 58 85 100 100 100 100 100
100 100 100 100 100 100 100 100 100 100 100 100 100 100 100 100 100 100 100 100 100 100 100 100 90 74 99 100 81 100 100 100 100 86 99 100 100 100 100 100 100 100 93
100 100 100 100 100 100 100 100 100 100 100 100 100 100 100 100 100 100 100 100 100 100 100 100 100 100 100 99 89 98 12 99 99 68 93 100 100 100 100 100 100 100 100
100 100 100 100 100 100 100 100 100 100 100 100 100 100 100 100 100 100 100 100 100 100 100 100 100 100 64 54 54 82 99 10 100 95 90 94 100 100 100 100 100 100 100
100 100 100 100 100 100 100 100 100 100 100 100 100 100 100 100 100 100 100 100 100 100 100 100 100 100 62 92 100 100 100 100 100 100 100 92 100 100 100 100 100 100 100
100 96 100 100 100 100 100 100 100 100 100 100 100 100 100 100 100 100 100 100 100 100 100 100 100 100 100 100 100 100 100 84 100 100 100 100 100 100 100 100 100 100 100
100 100 99 100 100 100 100 100 100 100 100 100 100 100 100 100 100 100 100 100 100 100 100 100 100 100 100 100 100 100 100 100 100 100 100 100 100 100 100 100 100 100 100
96 100 100 100 100 100 100 100 100 100 100 100 100 100 100 100 100 100 100 100 100 100 100 100 100 100 100 100 100 100 100 100 100 100 100 100 100 100 100 100 100 100 100
64 75 100 100 100 96 100 100 100 100 100 100 100 100 100 100 100 100 100 100 100 100 100 100 100 100 100 100 100 100 100 100 100 100 100 100 100 100 100 100 100 100 100
100 100 100 100 100 100 100 100 100 100 100 100 100 100 100 100 100 100 100 100 100 100 100 100 100 100 100 100 100 100 100 100 100 100 100 100 100 100 100 100 100 100 100
100 100 100 100 100 100 100 100 100 100 100 100 98 100 100 100 100 100 100 100 100 100 100 100 100 100 100 100 100 100 100 100 100 100 100 100 100 100 100 100 100 100 99
100 100 100 100 100 100 100 100 100 96 86 88 97 100 98 61 86 100 100 100 100 100 100 100 100 100 100 100 100 100 100 100 100 100 100 100 100 100 100 100 88 99 92
100 100 100 100 100 91 43 96 66 95 100 100 100 95 100 100 100 100 100 100 100 100 100 100 100 100 100 100 100 100 100 100 100 100 100 100 100 100 100 100 94 91 80
100 100 55 52 100 54 44 96 22 83 80 52 35 63 65 77 91 100 99 100 100 100 100 100 100 100 100 100 100 100 100 100 97 100 100 100 100 100 96 100 94 97 100
36 58 70 15 71 33 50 45 33 100 98 97 80 69 11 16 59 80 100 100 100 100 100 100 100 100 100 100 100 100 100 64 100 100 100 100 100 100 100 99 100 100 100
100 100 100 100 100 100 74 68 16 100 100 100 100 93 80 72 98 96 100 100 100 100 100 100 100 100 100 100 100 99 100 96 84 98 98 100 99 100 100 100 96 100 100
100 100 100 100 100 100 100 82 92 100 100 100 100 100 100 90 93 100 100 100 100 100 100 100 100 100 100 100 100 100 98 91 100 100 66 100 100 100 100 100 100 100 83
100 100 100 100 100 100 100 97 100 100 100 100 100 100 98 70 93 100 100 100 100 100 100 100 100 100 100 99 100 91 83 99 100 100 100 96 100 100 100 100 100 100 100

GFSMA_prec_cloud_183.txt.gz
Cloud_Cover
71 41 100 100 100 100 100 100 28 26 40 58 68 98 56 81 100 60 100 69 69 60 100 86 99 100 100 100 96 100 100 100 100 100 100 100 84 100 100 100 99 100 70
96 99 100 100 100 58 70 23 83 100 100 100 100 89 94 87 100 99 89 77 100 100 100 97 100 100 100 100 86 59 90 100 100 90 100 100 96 77 80 100 100 100 100
100 100 100 100 88 100 100 100 100 100 100 100 92 97 50 83 94 98 99 100 100 98 88 100 100 100 100 100 100 100 100 100 100 100 100 90 99 100 100 100 100 100 100
100 84 100 100 90 19 92 91 100 98 89 100 100 100 100 100 48 70 100 100 100 100 100 77 51 32 18 97 33 100 97 100 100 100 100 100 100 100 100 100 100 100 100
100 100 100 100 100 15 72 100 100 81 75 94 100 100 100 100 88 100 100 100 98 97 92 42 46 5 72 75 92 100 100 82 100 100 100 100 100 100 100 100 100 100 100
100 100 100 100 100 100 100 100 100 100 100 100 100 100 100 100 100 100 100 84 99 100 66 46 55 97 23 89 64 97 100 100 100 99 100 99 100 63 95 100 100 98 100
100 100 100 100 100 100 100 100 100 100 100 100 100 100 100 100 100 100 100 100 100 79 96 79 99 100 69 100 51 91 59 56 100 96 96 100 97 100 91 91 100 100 98
100 100 100 100 100 100 100 100 100 100 100 100 100 96 71 91 100 100 100 100 99 100 100 100 100 100 99 100 94 100 100 100 100 100 95 100 100 100 100 100 100 100 74
100 100 100 100 100 100 100 100 100 100 100 100 100 100 100 100 100 100 100 100 100 100 100 100 95 95 87 100 100 100 100 100 100 100 100 100 100 100 100 100 100 100 100
100 100 100 100 100 100 100 100 100 100 100 100 100 100 100 100 100 100 100 100 100 100 100 100 100 100 99 100 100 100 100 100 100 100 100 100 100 100 100 100 100 100 100
100 100 100 100 100 100 100 100 100 100 100 100 100 100 100 100 100 100 100 100 100 100 100 100 100 100 98 63 100 100 100 100 100 100 100 100 100 100 100 100 100 100 100
100 100 100 100 100 100 100 100 100 100 100 100 100 100 100 100 100 100 100 100 100 100 100 100 100 100 100 97 100 100 100 100 100 100 100 100 100 100 100 100 100 100 100
100 100 100 100 100 100 100 100 100 100 100 100 100 100 100 100 100 100 100 100 100 100 100 100 100 100 100 100 100 100 100 100 100 100 100 100 100 100 100 100 100 100 100
100 100 100 100 100 100 100 100 100 100 100 100 100 100 100 100 100 100 100 100 100 100 100 100 100 100 100 100 100 100 100 100 100 100 100 100 100 100 100 100 100 100 100
100 100 100 100 100 100 100 100 100 100 100 100 100 100 100 100 100 100 100 100 100 100 100 100 100 100 100 100 100 100 100 100 100 100 90 76 100 100 100 100 100 100 100
96 98 100 100 100 100 99 100 100 100 100 100 100 100 100 100 100 100 100 100 100 100 100 100 100 100 100 100 100 100 100 100 100 100 100 89 100 100 100 100 100 100 100
96 91 100 100 100 100 100 100 100 100 100 100 100 100 100 100 100 100 100 100 100 100 100 100 100 100 100 100 100 100 100 100 100 100 100 100 100 100 100 100 100 100 100
96 95 100 100 100 100 100 100 100 100 100 100 100 100 100 100 100 100 100 100 100 100 100 100 100 100 100 100 100 100 100 100 100 100 100 100 100 100 100 100 99 100 100
73 99 100 99 100 99 100 100 100 100 100 98 96 67 34 88 100 100 100 100 100 100 100 100 100 100 100 100 100 100 100 100 100 100 100 100 100 100 100 100 100 100 100
100 100 100 100 100 100 100 100 100 100 100 100 100 100 100 54 27 86 100 100 100 100 100 100 100 100 100 100 100 100 100 100 100 100 100 100 100 100 100 100 100 100 100
100 100 100 100 100 100 100 100 100 100 100 49 39 14 20 50 100 99 90 63 88 96 100 100 79 100 100 100 100 100 100 100 100 100 100 100 100 100 100 100 100 100 100
100 84 99 100 100 100 100 100 29 43 59 72 100 100 7 5 34 51 30 90 100 100 100 100 82 100 99 100 100 100 100 100 92 100 100 100 100 100 100 100 100 100 100
100 36 25 41 24 30 5 5 5 98 100 97 97 95 33 7 5 5 5 5 77 94 100 100 97 100 100 100 100 100 100 100 100 100 100 100 100 100 100 100 100 100 96
90 98 100 98 100 97 5 5 15 100 100 100 100 99 16 33 35 12 44 15 43 83 100 100 100 100 100 100 100 100 100 100 100 100 100 100 100 100 100 97 92 98 94
100 100 100 100 100 100 100 16 62 95 100 100 100 100 100 100 59 62 10 58 73 100 100 100 100 100 100 100 100 100 100 100 100 100 100 100 94 100 96 100 100 6 5
100 100 100 100 100 100 100 32 94 100 100 100 100 100 100 100 98 45 58 68 89 100 100 100 100 100 100 100 100 100 100 100 97 99 94 90 95 89 97 100 99 99 100

GFSMA_prec_cloud_186.txt.gz
Cloud_Cover
98 99 100 100 93 21 14 4 4 8 13 23 99 69 60 63 96 5 37 8 87 84 90 100 100 100 100 100 100 100 100 100 100 100 100 100 100 100 100 100 100 100 100
100 97 100 98 100 100 100 98 30 44 95 45 5 45 99 95 100 11 17 98 100 100 98 100 100 100 100 100 100 100 100 100 100 100 100 100 100 94 100 100 100 100 100
99 100 100 100 100 100 100 99 54 4 60 98 63 44 38 96 100 98 98 100 100 100 100 100 100 69 48 82 77 29 76 64 100 100 100 100 100 100 100 100 100 100 100
100 100 100 100 100 100 100 94 82 27 35 100 100 100 95 25 99 100 100 100 100 100 100 100 72 71 86 70 45 83 95 89 98 100 100 91 52 90 100 100 100 100 100
94 100 100 100 100 100 100 100 100 100 100 100 100 100 100 100 100 100 100 100 100 100 100 100 100 33 46 94 32 97 90 100 100 100 80 100 100 100 99 62 90 96 78
67 100 100 100 100 100 100 100 100 100 100 100 100 100 100 100 82 100 97 100 100 100 28 80 100 66 17 73 98 97 100 100 100 100 98 59 73 13 96 100 69 28 100
100 99 100 100 100 100 100 100 100 100 100 100 100 100 100 100 100 100 100 100 100 100 78 100 100 100 100 100 100 100 100 100 100 100 100 100 74 50 49 83 75 96 100
100 100 100 100 100 100 100 100 100 100 100 100 100 100 100 100 100 100 100 100 100 100 100 100 100 100 100 100 100 100 100 100 100 88 95 98 99 100 100 92 90 71 100
100 100 100 100 100 100 100 100 100 100 100 100 100 100 100 100 100 100 100 100 100 100 100 100 100 100 100 100 100 100 100 75 100 100 100 100 100 100 100 100 100 100 100
100 100 100 100 100 100 100 100 99 100 100 100 100 100 100 100 100 100 100 100 100 100 100 100 100 100 100 100 100 100 100 100 100 100 100 100 100 100 100 100 100 100 100
100 100 100 100 100 100 100 100 100 100 100 100 100 100 100 100 100 100 100 100 100 100 100 100 100 100 100 100 100 100 100 100 100 100 100 100 100 100 100 100 100 100 100
100 100 100 100 100 100 100 100 100 100 100 100 100 100 100 100 100 100 100 100 100 100 100 100 100 100 100 100 100 100 100 100 100 100 100 100 100 100 100 100 100 100 100
100 100 100 100 100 100 100 100 100 100 100 100 100 100 100 100 100 100 100 100 100 100 100 100 100 100 100 100 100 100 100 100 100 100 100 100 100 100 100 100 100 100 100
100 100 100 100 100 100 100 100 100 100 100 100 100 100 100 100 100 100 100 100 100 100 100 100 100 100 100 100 100 100 100 100 100 100 100 100 100 100 100 100 100 100 100
100 100 100 95 100 100 100 100 100 100 100 100 100 100 100 100 100 100 100 100 100 100 100 100 100 100 100 100 100 100 100 100 100 100 100 100 100 100 100 100 100 100 100
100 98 100 58 99 76 98 58 100 100 100 100 100 100 100 100 100 100 100 100 100 100 100 100 100 100 100 100 100 100 100 100 100 100 100 100 100 100 100 100 100 100 100
94 57 71 84 23 97 66 100 100 84 41 80 100 100 100 100 90 100 100 100 100 100 100 100 100 100 100 100 100 100 100 100 100 100 100 100 100 100 100 100 100 100 100
99 6 31 9 33 84 89 82 43 71 48 68 52 100 100 100 33 18 81 98 83 100 100 100 100 100 100 100 100 100 100 100 100 100 100 100 100 100 100 100 100 100 100
93 100 100 100 100 42 100 100 100 100 100 96 100 92 20 84 100 96 67 100 97 94 92 100 97 97 100 100 100 100 100 100 100 100 100 100 100 100 100 100 100 100 100
100 100 100 100 100 100 100 100 100 100 100 100 100 100 100 100 92 10 79 23 6 52 72 99 98 99 100 100 100 100 100 100 100 100 100 100 100 100 100 100 100 100 100
100 100 100 100 100 100 100 100 76 58 49 73 98 100 100 80 29 42 100 100 100 84 48 68 100 100 94 100 100 100 100 100 100 100 100 100 100 100 100 100 100 100 100
100 100 100 83 99 100 100 75 32 4 5 5 5 5 5 5 5 5 5 5 5 9 63 78 97 92 90 100 100 100 100 100 100 100 100 100 100 100 100 100 100 100 100
100 100 100 100 100 100 92 61 86 26 100 92 58 5 5 5 5 5 5 5 5 10 23 74 80 79 99 100 100 99 100 100 100 100 100 100 100 100 100 100 100 100 100
100 100 100 100 100 100 100 100 73 100 100 100 100 95 6 5 5 5 5 6 14 17 45 34 81 83 98 100 100 100 100 100 100 100 100 100 100 100 100 100 100 100 100
100 100 100 100 100 99 100 100 100 100 100 100 100 52 15 5 5 5 5 5 13 82 94 45 30 95 100 100 100 100 100 100 100 100 100 100 100 100 100 100 100 93 17
100 100 100 100 100 100 100 100 100 100 100 100 96 22 5 26 5 18 5 5 17 70 83 93 98 100 100 100 100 100 100 100 100 100 100 100 100 100 100 100 100 83 86

GFSMA_prec_cloud_192.txt.gz
Cloud_Cover
100 48 52 51 58 31 13 63 100 87 69 100 100 100 100 40 65 85 79 19 94 100 100 96 100 100 100 100 100 100 100 100 100 100 100 80 88 90 70 51 47 46 42
100 81 74 58 84 86 100 100 100 100 84 99 100 95 99 100 100 91 100 92 94 100 100 87 100 100 100 100 100 100 100 100 100 100 100 100 100 100 100 98 100 100 100
100 100 90 100 100 100 100 100 100 100 100 75 65 100 100 100 100 100 100 100 100 100 100 100 100 100 100 100 100 100 100 100 100 100 100 100 100 100 94 100 100 100 100
100 100 100 100 100 100 100 100 100 91 88 6 51 100 100 100 100 100 100 100 100 100 100 100 100 100 100 53 90 48 96 100 100 100 100 96 77 77 98 100 100 100 100
93 100 100 100 100 100 100 100 100 91 95 94 100 86 99 95 100 100 100 100 100 100 100 100 100 100 100 99 100 100 100 100 100 100 100 100 100 98 100 100 87 81 80
72 96 100 100 100 100 100 100 100 100 100 100 100 94 100 100 100 100 100 100 100 100 100 100 100 100 100 100 100 100 100 100 100 100 100 100 100 100 100 100 100 100 100
100 5 100 100 100 100 100 100 100 100 100 100 100 100 100 90 100 100 100 100 100 100 100 100 100 100 100 100 100 100 100 100 100 100 100 100 100 100 100 100 100 100 100
100 100 100 100 100 98 100 100 100 100 100 100 100 100 100 100 100 100 100 100 100 100 100 100 100 100 100 100 100 100 100 100 100 100 100 100 100 100 100 100 100 100 100
100 100 98 78 100 99 100 100 100 100 100 100 100 100 100 100 100 100 100 100 100 100 100 100 100 100 100 100 100 100 100 100 100 100 100 100 100 100 100 100 100 100 100
92 100 100 99 92 48 100 100 100 99 98 100 100 100 100 100 100 100 100 100 100 100 100 100 100 100 100 100 100 100 100 100 100 100 100 100 100 100 100 100 100 100 100
100 100 100 100 100 100 100 100 100 100 100 100 100 100 100 100 100 100 100 100 100 100 100 100 100 100 100 100 100 100 100 100 100 100 100 100 100 100 100 100 100 100 100
100 100 100 100 100 100 100 100 100 100 100 100 100 100 100 100 100 100 100 100 100 100 100 100 100 100 100 100 100 100 100 100 100 100 100 100 100 100 100 100 100 100 100
100 100 100 100 100 100 100 100 100 100 100 100 90 100 100 100 100 100 100 100 100 100 100 100 100 100 100 100 100 100 100 100 100 100 100 100 100 100 100 100 100 100 100
100 100 100 100 100 100 100 99 91 100 100 98 100 100 100 100 100 100 100 100 100 100 100 100 100 100 100 100 100 100 100 100 100 100 100 100 100 100 100 100 100 100 100
100 100 100 100 100 100 100 100 100 100 100 89 82 98 100 100 100 100 100 100 100 100 100 100 100 100 100 100 100 100 100 100 100 100 100 100 100 100 100 100 100 100 100
100 100 100 100 100 100 100 100 100 100 100 100 89 100 100 100 100 100 100 100 100 100 100 100 100 100 100 100 100 100 100 100 100 100 100 100 100 100 100 100 100 100 100
100 100 100 100 100 100 100 100 99 100 97 100 100 100 100 100 100 99 90 100 75 51 90 100 100 100 100 100 100 100 100 100 100 100 100 100 100 100 100 100 100 100 100
100 100 100 100 100 98 35 74 65 80 95 97 10 12 82 99 100 100 79 15 6 6 55 100 100 100 100 100 100 100 100 100 100 91 51 100 100 100 100 100 100 100 100
100 100 100 100 100 52 94 100 100 100 74 65 23 100 100 98 91 98 98 7 4 0 4 21 100 78 86 100 100 100 100 100 100 100 91 25 98 100 100 100 100 100 100
100 100 100 100 100 99 100 100 100 98 94 100 100 94 92 100 100 100 90 6 5 2 3 6 32 87 100 100 100 100 100 100 100 100 95 76 48 100 100 100 100 100 100
100 100 100 100 100 100 100 100 100 100 100 100 74 90 100 100 100 100 100 93 70 79 26 100 100 100 100 100 100 100 100 100 100 100 96 96 86 100 100 100 100 100 100
100 100 100 100 100 100 100 100 100 100 100 100 100 100 100 100 100 100 100 100 100 100 100 100 23 97 100 100 100 100 100 100 100 100 68 97 84 100 100 100 100 100 100
100 100 100 100 100 100 100 100 100 100 100 100 100 100 100 100 100 100 100 100 100 97 24 11 11 96 77 99 100 100 98 100 100 100 100 100 100 96 100 100 100 100 100
100 100 100 100 100 100 100 100 100 100 100 100 100 100 100 100 100 100 100 100 100 32 56 11 3 5 4 18 99 94 100 100 100 100 100 100 99 100 100 100 100 100 100
100 100 100 100 100 100 100 100 100 100 100 100 100 100 100 100 100 100 95 69 100 86 86 20 9 5 5 16 33 60 70 98 100 100 100 100 100 100 100 100 100 100 100
100 100 100 100 100 100 100 100 100 100 100 100 100 100 100 100 100 100 100 100 62 74 90 94 79 35 25 56 33 74 98 100 100 100 100 100 100 100 100 100 100 100 100

GFSMA_prec_cloud_195.txt.gz
Cloud_Cover
100 100 100 100 100 40 98 82 70 25 25 19 99 99 100 100 100 100 100 100 100 100 100 100 100 100 100 100 100 100 100 100 100 100 100 100 100 100 100 100 100 100 100
100 94 99 100 100 69 87 60 78 88 98 100 100 96 72 100 100 100 100 92 100 100 100 100 100 100 100 100 100 100 100 100 100 100 100 100 100 100 100 100 100 100 100
100 100 98 100 100 100 100 100 98 86 100 100 100 99 98 100 100 98 100 100 99 100 100 100 100 100 100 100 100 100 100 100 100 100 100 100 100 100 100 100 100 100 100
100 100 100 50 97 100 100 100 100 100 100 100 100 73 99 100 100 100 100 100 100 100 100 100 100 100 100 100 100 100 100 100 100 100 100 100 100 100 100 100 100 100 100
97 100 98 100 100 100 100 100 100 100 100 100 100 100 100 100 100 100 100 100 100 100 100 100 100 100 100 100 100 100 100 100 98 91 100 100 100 100 100 98 100 100 100
99 100 100 100 100 94 86 98 100 100 100 100 100 100 100 100 100 100 100 100 100 100 100 100 100 100 100 100 100 100 100 100 100 98 97 93 100 100 100 98 100 100 100
100 100 100 100 100 100 100 100 100 100 100 100 100 100 100 100 100 100 100 100 100 100 100 100 100 100 100 100 100 100 100 100 100 100 100 100 100 100 100 100 100 100 100
98 90 100 100 96 97 100 100 100 100 100 100 100 100 100 100 100 100 100 100 100 100 100 100 100 100 100 100 100 100 100 100 100 100 100 100 100 100 100 100 100 100 100
99 90 84 100 99 98 100 100 100 100 100 100 100 100 100 100 100 100 100 100 100 100 100 100 100 100 100 100 100 100 100 100 100 100 100 100 100 100 100 100 100 100 100
100 100 99 93 99 100 100 95 98 92 100 100 100 100 100 100 100 100 100 100 100 100 100 100 100 100 100 100 100 100 100 100 100 100 100 100 100 100 100 100 100 100 100
100 100 100 100 100 100 100 100 100 100 100 100 100 100 100 100 100 100 100 100 100 100 100 100 100 100 100 100 100 100 100 100 100 100 100 100 100 100 100 100 100 100 100
100 100 100 100 100 100 99 100 100 100 100 100 100 100 100 100 100 100 100 100 100 100 100 100 100 100 100 100 100 100 100 100 100 100 100 100 100 100 100 100 100 100 100
100 100 100 100 100 100 99 100 100 100 100 100 100 100 92 100 100 97 100 100 100 100 100 100 100 100 100 100 100 100 100 100 100 100 100 100 100 100 100 100 100 100 100
100 100 100 100 100 100 100 100 100 100 100 100 100 100 100 100 100 100 100 100 100 100 100 100 100 100 100 100 100 100 100 100 100 100 100 100 100 100 100 100 100 100 100
100 100 100 100 100 100 100 100 98 100 100 100 100 100 100 88 75 100 100 100 100 100 100 100 100 100 100 100 100 100 100 100 100 100 100 100 100 100 100 100 100 100 100
100 100 100 100 100 100 100 100 100 100 100 100 100 100 100 100 100 100 100 100 100 100 100 100 100 100 100 100 100 100 100 100 100 100 100 100 100 100 100 100 100 100 100
100 100 100 100 100 100 100 100 100 100 100 100 100 100 100 100 100 100 100 100 100 100 100 100 100 100 100 100 100 100 100 100 100 100 100 100 100 100 100 100 100 98 100
100 100 100 100 100 100 100 100 100 100 100 100 100 100 100 100 100 100 100 100 100 100 100 100 100 100 100 100 100 100 100 100 100 100 97 100 100 33 5 6 14 36 19
100 100 100 100 100 100 100 100 100 100 100 100 100 100 100 100 100 100 100 88 100 10 10 38 99 100 100 100 100 100 100 100 100 100 100 100 85 42 5 6 70 14 94
100 100 100 100 100 100 100 100 100 100 100 100 100 100 100 100 100 100 100 100 100 93 89 100 50 97 100 100 100 100 100 100 100 99 87 56 55 44 5 5 5 65 100
100 100 100 100 100 100 100 100 100 100 100 100 100 100 100 100 100 100 100 100 100 100 100 90 82 100 100 100 100 100 100 100 100 100 99 91 99 93 48 46 18 93 99
100 100 100 100 100 100 100 100 100 100 100 100 100 100 100 100 100 100 100 95 100 100 100 100 100 100 100 100 100 100 100 100 100 100 97 100 56 89 64 75 80 73 100
100 100 100 100 100 100 100 100 100 100 100 100 100 100 100 100 100 100 100 100 100 100 100 100 100 94 100 100 100 100 100 100 100 100 93 100 100 98 89 83 92 100 100
100 100 100 100 100 100 100 100 100 100 100 100 100 100 100 100 100 100 100 100 100 100 100 100 100 96 24 100 100 100 100 100 100 100 99 86 100 98 92 84 100 100 100
100 100 100 100 100 97 100 100 100 100 100 100 100 100 100 100 100 100 100 100 100 100 100 100 100 100 5 30 100 100 100 91 92 100 99 99 83 100 100 96 100 100 100
99 100 100 100 100 100 78 100 100 100 100 100 100 100 100 100 100 100 100 100 100 100 100 100 92 71 15 30 100 100 42 49 95 100 100 100 92 99 100 74 100 100 100